User: anonymous   Login
Location: Goudex
(43.3760°N, 0.9543°E)
Time: 10:06:05
(UTC+00:00)
Language:

Cosmos 1238 Rocket - Orbit

View from above orbital plane
View from above orbital plane
View from above satellite
View from above satellite

Ground track
Ground track

The orbit data is extracted from the following two-line orbital elements,

1 12139U 81003B   20018.56447483 +.00001216 +00000-0 +56177-4 0  9990
2 12139 082.9462 088.0712 0464317 355.0363 004.6307 14.56762150984485
Epoch (UTC): 18 January 2020 13:32:50
Eccentricity: 0.0464317
inclination: 82.9462°
perigee height: 375 km
apogee height: 1032 km
right ascension of ascending node: 88.0712°
argument of perigee: 355.0363°
revolutions per day: 14.56762150
mean anomaly at epoch: 4.6307°
orbit number at epoch: 98448

The dashed part of the orbit path shows where the satellite is in the earth's shadow,  

DLR